Frankfort, KY

7:33 PM EST on January 16, 2018 (GMT -0500)
Capital City

Weather History for KFFT - July, 2012

Change the Weather History Date:

Friday, July 13, 2012

  Actual Average Record
Temperature  
Mean Temperature 75 °F 76 °F  
Max Temperature 81 °F 87 °F 106 °F (1936)
Min Temperature 69 °F 66 °F 54 °F (1953)
Degree Days  
Heating Degree Days 0 0  
Month to date heating degree days 0 0  
Since 1 June heating degree days 14 10  
Since 1 July heating degree days 0 0  
Cooling Degree Days 10 11  
Month to date cooling degree days 214 143  
Year to date cooling degree days 626 478  
Since 1 June cooling degree days 445 379  
Growing Degree Days 24 (Base 50)    
Moisture  
Dew Point 68 °F    
Average Humidity 81    
Maximum Humidity 93    
Minimum Humidity 69    
Precipitation  
Precipitation T in 0.14 in 2.95 in (1924)
Month to date precipitation 0.35 1.72  
Year to date precipitation 19.11 25.28  
Sea Level Pressure  
Sea Level Pressure 30.09 in    
Wind  
Wind Speed 5 mph (East)    
Max Wind Speed 12 mph    
Max Gust Speed 14 mph    
Visibility 10 miles    
Events      
T = Trace of Precipitation, MM = Missing Value Source: NWS Daily Summary

Daily Weather History Graph

Daily Weather History Graph

Search for Another Location

Airport or City:

Trip Planner

Search our weather history database for the weather conditions in past years. The results will help you decide how hot, cold, wet, or windy it might be!

Date:

Astronomy

Jul. 13, 2012 Rise Set
Actual Time 6:27 AM EDT 9:02 PM EDT
Civil Twilight 5:56 AM EDT 9:33 PM EDT
Nautical Twilight 5:18 AM EDT 10:11 PM EDT
Astronomical Twilight 4:35 AM EDT 10:54 PM EDT
Moon 2:03 AM EDT (7/13) 4:32 PM EDT (7/13)
Length of Visible Light 15h 37m
Length of Day
14h 35m
Waning Crescent, 26% of the Moon is Illuminated
Jul 13
Waning Crescent
Jul 19
New
Jul 26
First Quarter
Aug 1
Full
Aug 9
Last Quarter

Hourly Weather History & Observations

Time (EDT) Temp. Heat Index Dew Point Humidity Pressure Visibility Wind Dir Wind Speed Gust Speed Precip Events Conditions
12:53 AM 71.1 °F - 66.0 °F 84% 30.09 in 10.0 mi Calm Calm - N/A   Clear
1:53 AM 70.0 °F - 66.0 °F 87% 30.09 in 10.0 mi East 3.5 mph - N/A   Clear
2:53 AM 70.0 °F - 66.9 °F 90% 30.07 in 10.0 mi ESE 5.8 mph - N/A   Clear
3:53 AM 69.1 °F - 66.9 °F 93% 30.07 in 10.0 mi Calm Calm - N/A   Clear
4:53 AM 69.1 °F - 66.9 °F 93% 30.07 in 10.0 mi ENE 4.6 mph - N/A   Partly Cloudy
5:06 AM 69.8 °F - 66.2 °F 88% 30.09 in 10.0 mi ENE 3.5 mph - N/A   Mostly Cloudy
5:28 AM 69.8 °F - 66.2 °F 88% 30.09 in 10.0 mi ENE 3.5 mph - N/A   Scattered Clouds
5:53 AM 70.0 °F - 66.9 °F 90% 30.08 in 10.0 mi ENE 3.5 mph - N/A   Clear
6:53 AM 70.0 °F - 66.9 °F 90% 30.09 in 10.0 mi ENE 5.8 mph - N/A   Clear
7:17 AM 69.8 °F - 66.2 °F 88% 30.11 in 10.0 mi ENE 5.8 mph - N/A   Partly Cloudy
7:53 AM 71.1 °F - 68.0 °F 90% 30.09 in 10.0 mi ENE 4.6 mph - N/A   Clear
8:42 AM 71.6 °F - 68.0 °F 88% 30.11 in 10.0 mi East 6.9 mph - N/A   Mostly Cloudy
8:53 AM 72.0 °F - 68.0 °F 87% 30.10 in 10.0 mi East 5.8 mph - N/A   Overcast
9:25 AM 71.6 °F - 66.2 °F 83% 30.13 in 10.0 mi East 9.2 mph - N/A   Overcast
9:53 AM 73.0 °F - 66.9 °F 81% 30.11 in 10.0 mi East 5.8 mph - N/A   Overcast
10:51 AM 73.4 °F - 68.0 °F 83% 30.12 in 10.0 mi East 5.8 mph - N/A   Overcast
10:53 AM 73.0 °F - 68.0 °F 84% 30.11 in 10.0 mi ESE 5.8 mph - N/A   Overcast
11:53 AM 73.9 °F - 66.9 °F 79% 30.11 in 10.0 mi East 6.9 mph - N/A   Overcast
12:18 PM 75.2 °F - 66.2 °F 73% 30.13 in 10.0 mi ESE 8.1 mph - N/A   Overcast
12:53 PM 77.0 °F - 66.9 °F 71% 30.10 in 10.0 mi East 8.1 mph - N/A   Overcast
1:53 PM 75.9 °F - 66.0 °F 71% 30.09 in 10.0 mi East 6.9 mph - N/A   Overcast
2:53 PM 75.9 °F - 66.9 °F 74% 30.09 in 10.0 mi East 8.1 mph - N/A   Overcast
3:53 PM 77.0 °F - 68.0 °F 74% 30.08 in 10.0 mi NE 6.9 mph - N/A   Overcast
4:10 PM 78.8 °F - 68.0 °F 69% 30.10 in 10.0 mi NE 5.8 mph - N/A   Mostly Cloudy
4:17 PM 78.8 °F - 68.0 °F 69% 30.10 in 10.0 mi East 4.6 mph - N/A   Mostly Cloudy
4:33 PM 78.8 °F - 66.2 °F 65% 30.09 in 10.0 mi NNE 3.5 mph - N/A   Mostly Cloudy
4:53 PM 79.0 °F - 68.0 °F 69% 30.06 in 10.0 mi NNE 5.8 mph - N/A   Mostly Cloudy
5:53 PM 79.0 °F - 68.0 °F 69% 30.04 in 10.0 mi East 5.8 mph - N/A   Partly Cloudy
6:21 PM 78.8 °F - 68.0 °F 69% 30.06 in 10.0 mi East 4.6 mph - N/A   Mostly Cloudy
6:42 PM 78.8 °F - 68.0 °F 69% 30.06 in 10.0 mi East 8.1 mph - N/A   Mostly Cloudy
6:53 PM 79.0 °F - 68.0 °F 69% 30.04 in 10.0 mi Variable 4.6 mph - N/A   Mostly Cloudy
7:09 PM 80.6 °F 83.2 °F 68.0 °F 65% 30.06 in 10.0 mi ESE 4.6 mph - N/A   Mostly Cloudy
7:53 PM 79.0 °F - 69.1 °F 72% 30.05 in 10.0 mi South 9.2 mph - N/A   Scattered Clouds
8:53 PM 75.9 °F - 69.1 °F 79% 30.06 in 10.0 mi SSE 4.6 mph - N/A   Scattered Clouds
9:53 PM 75.0 °F - 69.1 °F 82% 30.08 in 10.0 mi SE 4.6 mph - N/A   Partly Cloudy
10:53 PM 73.9 °F - 70.0 °F 87% 30.08 in 10.0 mi SE 4.6 mph - 0.00 in   Mostly Cloudy
11:53 PM 73.0 °F - 71.1 °F 93% 30.08 in 10.0 mi SE 3.5 mph - N/A   Overcast